Regional Weather Roundup
Issued by NWS Nashville, TN

Home | Current Version | Previous Version | Text Only | Print | Product List | Glossary On
Versions: 1 2 3 4 5 6 7 8 9 10 11 12 13 14 15 16 17 18 19 20 21 22 23 24 25 26 27 28 29 30 31 32 33 34 35 36 37 38 39 40 41 42 43 44 45 46 47 48 49 50
000
ASUS44 KOHX 231615
RWROHX
MIDDLE TENNESSEE HOURLY WEATHER ROUNDUP
NATIONAL WEATHER SERVICE NASHVILLE TN
1100 AM CDT TUE SEP 23 2014

NOTE: "FAIR" INDICATES FEW OR NO CLOUDS BELOW 12,000 FEET WITH
NO SIGNIFICANT WEATHER AND/OR OBSTRUCTIONS TO VISIBILITY.

* THESE REPORTS ARE NOT UNDER NWS QUALITY CONTROL AND MAY NOT
  REPORT WEATHER SUCH AS PRECIPITATION AND FOG.


TNZ005>011-023>034-057-059-062>066-078-080-231700
...NORTHERN MIDDLE TENNESSEE...

CITY           SKY/WX    TMP DP  RH WIND       PRES   REMARKS
CLARKSVILLE    SUNNY     68  49  50 E8        30.29F
CROSSVILLE     SUNNY     67  46  47 E6        30.29S
GALLATIN         N/A     68  50  52 E9        30.30S
DICKSON        SUNNY     64  48  55 E7        30.28R
LEBANON        SUNNY     66  51  58 E5        30.27S
NASHVILLE      MOSUNNY   69  50  50 E6        30.29S
WEST NASHVILLE   N/A     66  46  48 E7        30.28S
PORTLAND       SUNNY     66  48  52 NE8       30.29S
SMYRNA         SUNNY     68  51  54 CALM      30.29S
SPARTA         SUNNY     68  54  60 CALM      30.28S
$$
TNZ056-058-060-061-075>077-079-093>097-231700
...SOUTHERN MIDDLE TENNESSEE...

CITY           SKY/WX    TMP DP  RH WIND       PRES   REMARKS
COLUMBIA       SUNNY     70  54  56 VRB5      30.25S
FAYETTEVILLE   SUNNY     68  52  56 E8G21     30.25S
LEWISBURG      SUNNY     67  53  60 NE5       30.26S
MCMINNVILLE    SUNNY     66  55  68 E6        30.27S
MURFREESBORO   SUNNY     67  51  56 VRB3      30.27S
SHELBYVILLE    SUNNY     72  54  53 CALM      30.27S
TULLAHOMA      SUNNY     68  52  56 CALM      30.27S
WINCHESTER     SUNNY     70  55  60 E3        30.26S
$$


...KEY TO REMARKS...
VSB - VISIBILITY IN MILES
WCI - WIND CHILL INDEX
HX  - HEAT INDEX



USA.gov is the U.S. government's official web portal to all federal, state and local government web resources and services.